[[{"header":{"parameterUnit":"m.s-1","parameterCategory":1,"la1":30.2991,"la2":30.254,"lo1":-89.0895,"lo2":-89.0444,"dy":0.0017,"dx":0.0017,"nx":28,"ny":28,"refTime":"2024-04-26T21:00:00:Z","depth":0,"parameterNumber":2,"parameterNumberName":"U-component_of_WINDS"},"data":[0,0,0,0,0,0,0,0,0,0,0,0,0,0,0,0,0,0,0,0,0,0,0,0,0,0,0,0,0,0,0,0,0,0,0,0,0,0,0,0,0,0,0,0,0,0,0,0,0,0,0,0,0,0,0,0,0,0,-7.6589,-7.659,0,-7.6756,-7.6758,-7.676,-7.6715,-7.6712,-7.6709,-7.6706,-7.6874,-7.6881,-7.6888,0,0,0,0,0,0,0,0,0,0,0,0,0,-7.6227,-7.6234,-7.6588,-7.6591,-7.6593,-7.6756,-7.6758,-7.676,-7.6716,-7.6712,-7.6708,-7.6704,-7.6871,-7.688,-7.6889,0,0,0,0,0,0,0,0,0,0,0,0,0,-7.6388,-7.6236,-7.6588,-7.659,-7.6592,-7.6755,-7.6758,-7.6761,-7.6717,-7.6712,-7.6707,-7.6702,-7.6868,-7.6879,-7.689,-7.706,0,0,-7.6925,-7.693,0,0,0,0,0,0,0,0,-7.6379,-7.6401,-7.6588,-7.659,-7.6593,-7.671,-7.6692,-7.6861,-7.6718,-7.6669,-7.6706,-7.67,-7.6823,-7.6838,-7.688,-7.7068,-7.7075,-7.6926,-7.6933,-7.6938,-7.6941,0,0,0,0,0,0,0,-7.6368,-7.6394,-7.6655,-7.6591,-7.6594,-7.6582,-7.6599,-7.6724,-7.6772,-7.6673,-7.667,-7.6691,-7.6823,-7.6869,-7.6883,-7.7078,-7.6926,-7.6936,-7.6943,-7.6947,-7.7412,-7.7418,0,0,0,0,0,0,-7.6355,-7.6385,-7.6649,-7.666,-7.6472,-7.6592,-7.6612,-7.6677,-7.6771,-7.678,-7.6695,-7.6688,-7.6852,-7.687,-7.6889,-7.7092,-7.6938,-7.6948,-7.6955,-7.7407,-7.7414,-7.742,0,0,0,0,0,0,-7.6348,-7.6379,-7.6643,-7.6522,-7.6554,-7.6604,-7.6678,-7.6683,-7.6729,-7.6787,-7.6795,-7.6733,-7.6849,-7.6873,-7.7018,-7.7097,-7.6953,-7.6964,-7.74,-7.7409,-7.7417,-7.7501,0,0,0,0,0,0,-7.6337,-7.6377,-7.6442,-7.6523,-7.6561,-7.677,-7.6683,-7.669,-7.6749,-7.6742,-7.6825,-7.6834,-7.6847,-7.7001,-7.7029,-7.711,-7.6973,-7.7393,-7.7404,-7.7414,-7.7491,-7.7511,-7.7528,0,0,0,0,0,-7.6325,-7.6459,-7.6446,-7.6478,-7.6644,-7.6774,-7.6795,-7.6809,-7.6756,-7.6821,-7.6859,-7.6831,-7.7085,-7.7016,-7.7048,-7.7133,-7.7388,-7.7401,-7.7413,-7.7483,-7.7507,-7.7527,0,0,0,0,0,0,-7.6385,-7.647,-7.6456,-7.6621,-7.6691,-7.6767,-7.685,-7.6834,-7.6919,-7.6909,-7.6921,-7.694,-7.7087,-7.7126,-7.7047,-7.7302,-7.7229,-7.7248,-7.7271,-7.7295,-7.7313,-7.7298,-7.6982,0,0,0,0,0,-7.6418,-7.6517,-7.6586,-7.6725,-7.6761,-7.68,-7.6857,-7.6861,-7.6933,-7.6962,-7.701,-7.708,-7.7175,-7.7238,-7.7329,-7.7498,-7.7514,-7.7572,-7.7591,-7.7606,-7.7621,-7.771,-7.7736,-7.746,-7.746,-7.746,0,0,-7.6485,-7.6544,-7.6606,-7.6738,-7.6793,-7.6894,-7.6824,-7.6935,-7.7009,-7.6978,-7.7117,-7.7156,-7.7235,-7.7392,-7.7463,-7.7428,-7.7701,-7.7622,-7.7633,-7.764,-7.7726,-7.7752,-7.7775,-7.7469,-7.7467,-7.7466,0,0,-7.666,-7.6716,-7.6837,-7.6893,-7.6977,-7.7003,-7.7032,-7.7111,-7.7135,-7.7275,-7.7253,-7.7343,-7.7507,-7.7564,-7.7614,-7.7812,-7.7789,-7.7842,-7.7936,-7.8024,-7.8045,-7.8065,-7.8132,-7.8157,-7.7858,-7.7858,-7.7858,0,-7.6733,-7.6886,-7.69,-7.7013,-7.707,-7.7049,-7.717,-7.7225,-7.7334,-7.7373,-7.7333,-7.7539,-7.7591,-7.776,-7.7808,-7.7851,-7.7883,-7.783,-7.8042,-7.8061,-7.8079,-7.8143,-7.8169,-7.7863,-7.7863,-7.7862,-7.7862,0,-7.697,-7.7076,-7.7164,-7.727,-7.7339,-7.7455,-7.7486,-7.7553,-7.7553,-7.7582,-7.7724,-7.7786,-7.7889,-7.793,-7.793,-7.8099,-7.8074,-7.8038,-7.7964,-7.8111,-7.8171,-7.8196,-7.7871,-7.7869,-7.7868,-7.7866,0,0,-7.7183,-7.7298,-7.7329,-7.7377,-7.7469,-7.7551,-7.7666,-7.7768,-7.7824,-7.7901,-7.7996,-7.8137,-7.8104,-7.8161,-7.8168,-7.8245,-7.8394,-7.8199,-7.8201,-7.823,-7.8581,-7.8604,-7.8633,-7.8382,-7.8387,-7.839,-7.8573,0,-7.7363,-7.7566,-7.7583,-7.7765,-7.7862,-7.7845,-7.7945,-7.8012,-7.8043,-7.8129,-7.8163,-7.8261,-7.8212,-7.8246,-7.8323,-7.836,-7.8464,-7.8348,-7.8467,-7.8471,-7.8444,-7.8665,-7.869,-7.886,-7.8597,-7.8601,-7.8604,0,-7.7599,-7.7683,-7.7875,-7.7953,-7.7994,-7.8084,-7.8178,-7.8262,-7.8337,-7.8354,-7.8419,-7.8415,-7.8532,-7.8457,-7.8617,-7.8538,-7.8588,-7.8614,-7.8621,-7.8629,-7.8543,-7.8675,-7.8914,-7.8938,-7.8642,-7.8639,-7.8636,0,-7.7731,-7.7893,-7.8028,-7.807,-7.8165,-7.8228,-7.827,-7.8341,-7.8401,-7.8483,-7.8521,-7.8617,-7.8668,-7.8741,-7.8762,-7.8706,-7.8921,-7.8848,-7.8936,-7.8935,-7.8978,-7.8974,-7.9224,-7.9018,-7.9018,-7.9017,-7.9017,0,-7.7927,-7.8044,-7.8088,-7.8171,-7.8302,-7.8321,-7.8449,-7.8488,-7.8551,-7.864,-7.8632,-7.8715,-7.8741,-7.8828,-7.8847,-7.8975,-7.8999,-7.9014,-7.9016,-7.9013,-7.901,-7.9042,-7.903,-7.9024,-7.9022,-7.9021,-7.902,0,-7.8094,-7.8129,-7.8275,-7.8354,-7.8376,-7.8469,-7.8535,-7.8614,-7.8645,-7.8758,-7.8785,-7.8833,-7.8936,-7.8966,-7.909,-7.9102,-7.9251,-7.9245,-7.9225,-7.9224,-7.9309,-7.9299,-7.9585,-7.9622,-7.9395,-7.9397,-7.9399,0,-7.8215,-7.8305,-7.8394,-7.8453,-7.8498,-7.8595,-7.8656,-7.8679,-7.8742,-7.8835,-7.8902,-7.9005,-7.9087,-7.9252,-7.9297,-7.9391,-7.9385,-7.9479,-7.9398,-7.9391,-7.9382,-7.9374,-7.9382,-7.9492,-7.9494,-7.9496,-7.9498,0,-7.8425,-7.8438,-7.8527,-7.8622,-7.8696,-7.8772,-7.8845,-7.8894,-7.8927,-7.8999,-7.9105,-7.9169,-7.9296,-7.9396,-7.9492,-7.9534,-7.9521,-7.9524,-7.9548,-7.9543,-7.9526,-7.9533,-7.9262,-7.9516,-7.9514,-7.9513,-7.9512,-7.9511,-7.857,-7.8648,-7.8723,-7.8822,-7.888,-7.8948,-7.9026,-7.9067,-7.9156,-7.9261,-7.927,-7.9383,-7.9456,-7.9583,-7.9631,-7.9719,-7.9692,-7.9728,-7.9736,-7.9744,-7.9749,-7.9516,-7.9737,-7.9737,-7.9737,-7.9736,-7.9736,0,-7.8776,-7.8823,-7.8915,-7.9017,-7.9095,-7.9079,-7.9159,-7.9225,-7.9325,-7.9395,-7.9476,-7.9597,-7.9695,-7.9749,-7.9846,-7.9906,-7.9902,-7.993,-7.9924,-7.9933,-7.977,-7.9738,-7.9931,-7.9931,-7.9931,-7.9931,-7.9931,-7.9931,-7.8892,-7.9022,-7.9045,-7.9204,-7.925,-7.9362,-7.9409,-7.9471,-7.9527,-7.9662,-7.9744,-7.9779,-7.9841,-7.9943,-8.0032,-8.0045,-8.0079,-8.011,-8.0119,-7.9965,-7.9945,-7.9926,-7.9895,-8.0118,-8.0119,-8.0275,-8.0276,-8.0277]},{"header":{"parameterUnit":"m.s-1","parameterCategory":1,"la1":30.2991,"la2":30.254,"lo1":-89.0895,"lo2":-89.0444,"dy":0.0017,"dx":0.0017,"nx":28,"ny":28,"refTime":"2024-04-26T21:00:00:Z","depth":0,"parameterNumber":3,"parameterNumberName":"V-component_of_WINDS"},"data":[0,0,0,0,0,0,0,0,0,0,0,0,0,0,0,0,0,0,0,0,0,0,0,0,0,0,0,0,0,0,0,0,0,0,0,0,0,0,0,0,0,0,0,0,0,0,0,0,0,0,0,0,0,0,0,0,0,0,4.2662,4.2662,0,4.2717,4.2718,4.2718,4.2697,4.2696,4.2695,4.2694,4.2745,4.2748,4.275,0,0,0,0,0,0,0,0,0,0,0,0,0,4.2534,4.2537,4.2662,4.2662,4.2663,4.2717,4.2718,4.2718,4.2698,4.2696,4.2694,4.2693,4.2745,4.2748,4.2751,0,0,0,0,0,0,0,0,0,0,0,0,0,4.259,4.2538,4.2662,4.2659,4.266,4.2717,4.2718,4.2719,4.2698,4.2696,4.2694,4.2692,4.2744,4.2747,4.2751,4.2812,0,0,4.2763,4.2764,0,0,0,0,0,0,0,0,4.2587,4.2594,4.2659,4.266,4.266,4.2698,4.2692,4.275,4.2698,4.2683,4.2694,4.2691,4.2731,4.2736,4.275,4.2815,4.2817,4.2763,4.2765,4.2767,4.2768,0,0,0,0,0,0,0,4.2583,4.2592,4.2683,4.266,4.2661,4.2654,4.266,4.2703,4.2717,4.2684,4.2683,4.269,4.2731,4.2746,4.2751,4.2818,4.2763,4.2766,4.2769,4.277,4.2935,4.2937,0,0,0,0,0,0,4.2579,4.2589,4.2682,4.2685,4.2618,4.2658,4.2665,4.2688,4.2716,4.2719,4.2692,4.2689,4.2741,4.2747,4.2753,4.2826,4.2767,4.2771,4.2773,4.2933,4.2935,4.2938,0,0,0,0,0,0,4.2577,4.2588,4.2679,4.2637,4.2648,4.2662,4.2689,4.269,4.2706,4.2722,4.2724,4.2705,4.274,4.2747,4.2798,4.2827,4.2772,4.2776,4.293,4.2934,4.2937,4.2973,0,0,0,0,0,0,4.2573,4.2587,4.2611,4.2637,4.265,4.2725,4.2691,4.2692,4.2713,4.271,4.2735,4.2737,4.2739,4.2792,4.2802,4.2832,4.2779,4.2928,4.2932,4.2936,4.2969,4.2977,4.2983,0,0,0,0,0,4.2569,4.2618,4.2612,4.2624,4.2681,4.2727,4.2734,4.2736,4.2715,4.2739,4.275,4.2737,4.2823,4.2798,4.2808,4.284,4.2926,4.2931,4.2935,4.2966,4.2975,4.2983,0,0,0,0,0,0,4.2593,4.2621,4.2615,4.2675,4.2699,4.2723,4.2753,4.2746,4.2774,4.277,4.277,4.2776,4.2828,4.2839,4.281,4.29,4.2871,4.2878,4.2891,4.29,4.2907,4.2903,4.2782,0,0,0,0,0,4.2606,4.2642,4.2664,4.2715,4.2727,4.2738,4.2758,4.2758,4.2781,4.2791,4.2805,4.2827,4.286,4.2881,4.2911,4.2971,4.2976,4.2998,4.3005,4.3011,4.3017,4.3049,4.3059,4.2953,4.2953,4.2953,0,0,4.2631,4.2651,4.2674,4.272,4.2738,4.2774,4.2747,4.2786,4.2812,4.2796,4.2845,4.2856,4.2881,4.2937,4.2962,4.2948,4.3047,4.3017,4.3022,4.3024,4.3055,4.3065,4.3073,4.2956,4.2956,4.2955,0,0,4.2697,4.2716,4.276,4.278,4.2808,4.2816,4.2827,4.2852,4.286,4.2909,4.2898,4.2929,4.2985,4.3003,4.3019,4.3093,4.3082,4.3103,4.314,4.3172,4.318,4.3187,4.3213,4.3222,4.3109,4.3109,4.3109,0,4.2724,4.278,4.2783,4.2824,4.2844,4.2834,4.2878,4.2896,4.2933,4.2946,4.2931,4.3001,4.3017,4.3076,4.3094,4.3109,4.312,4.3099,4.3179,4.3186,4.3193,4.3217,4.3227,4.3111,4.3111,4.3111,4.3111,0,4.2812,4.2851,4.2883,4.2921,4.2945,4.2987,4.2996,4.3019,4.3017,4.3026,4.3076,4.3096,4.313,4.3144,4.3142,4.3203,4.3194,4.3179,4.3149,4.3205,4.3228,4.3237,4.3115,4.3114,4.3113,4.3113,0,0,4.2892,4.2933,4.2945,4.2962,4.2993,4.3023,4.3064,4.3099,4.3119,4.3145,4.3179,4.3227,4.3214,4.3233,4.3232,4.326,4.3317,4.3241,4.3242,4.3254,4.3385,4.3395,4.3406,4.331,4.3312,4.3314,4.3382,0,4.296,4.3034,4.3039,4.3106,4.3141,4.3132,4.3168,4.3191,4.3201,4.3231,4.3241,4.3275,4.3255,4.3266,4.3293,4.3304,4.3343,4.3299,4.334,4.3342,4.3333,4.3418,4.3429,4.3493,4.3391,4.3393,4.3394,0,4.3047,4.3078,4.3149,4.3176,4.3191,4.3224,4.3256,4.3286,4.3311,4.3316,4.3338,4.3335,4.3376,4.3347,4.3403,4.3373,4.3391,4.3399,4.3401,4.3404,4.337,4.3422,4.3514,4.3523,4.3408,4.3407,4.3406,0,4.3098,4.3157,4.3207,4.3222,4.3255,4.3278,4.3292,4.3316,4.3337,4.3366,4.3379,4.3412,4.3429,4.3454,4.3458,4.3437,4.3515,4.3486,4.3519,4.3519,4.3534,4.3533,4.3629,4.3548,4.3547,4.3547,4.3547,0,4.3172,4.3215,4.323,4.326,4.3309,4.3314,4.3361,4.3374,4.3395,4.3427,4.3422,4.3451,4.3457,4.3487,4.3491,4.3537,4.3545,4.3549,4.3549,4.3549,4.3548,4.3559,4.3554,4.355,4.3549,4.3549,4.3548,0,4.3235,4.3247,4.3301,4.3329,4.3337,4.3371,4.3394,4.3423,4.3433,4.3473,4.3483,4.3498,4.3533,4.3541,4.3583,4.3586,4.364,4.3636,4.3632,4.3631,4.3663,4.366,4.3768,4.3783,4.3693,4.3694,4.3695,0,4.3281,4.3314,4.3346,4.3368,4.3385,4.342,4.3442,4.3448,4.3471,4.3503,4.3528,4.3564,4.3593,4.365,4.3664,4.3696,4.3692,4.3728,4.3697,4.3695,4.3691,4.3689,4.3692,4.3733,4.3734,4.3735,4.3736,0,4.336,4.3365,4.3398,4.3433,4.346,4.3488,4.3514,4.3532,4.3542,4.3568,4.3605,4.3628,4.3672,4.3707,4.374,4.3753,4.3746,4.3746,4.3755,4.3754,4.375,4.3752,4.3647,4.3743,4.3742,4.3742,4.3741,4.3741,4.3416,4.3445,4.3473,4.3509,4.353,4.3555,4.3584,4.3598,4.363,4.3667,4.3669,4.371,4.3734,4.3778,4.3793,4.3824,4.3813,4.3826,4.383,4.3833,4.3835,4.3747,4.383,4.383,4.383,4.383,4.383,0,4.3494,4.3512,4.3546,4.3584,4.3612,4.3606,4.3634,4.3658,4.3695,4.3719,4.3748,4.3792,4.3826,4.3843,4.3876,4.3898,4.3896,4.3907,4.3904,4.3907,4.3844,4.3832,4.3908,4.3908,4.3908,4.3908,4.3908,4.3908,4.3538,4.3587,4.3595,4.3655,4.3672,4.3713,4.373,4.3753,4.3772,4.3821,4.385,4.3862,4.3883,4.3918,4.3949,4.3953,4.3965,4.3978,4.398,4.392,4.3912,4.3904,4.3893,4.3981,4.3981,4.4041,4.4041,4.4042]}]]